User: anonymous   Login
Location: Choisy
(48.7685°N, 2.4187°E)
Time: 23:19:34
(UTC+00:00)
Language:

Cosmos 1844 - Orbit

View from above orbital plane
View from above orbital plane
View from above satellite
View from above satellite

Ground track
Ground track

The orbit data is extracted from the following two-line orbital elements,

1 17973U 87041A   22020.59266419 -.00000143  00000-0 -49344-4 0  9993
2 17973  70.9012 336.0405 0028777 130.7671 229.5955 14.14141824790211
Epoch (UTC): 20 January 2022 14:13:26
Eccentricity: 0.0028777
inclination: 70.9012°
perigee height: 824 km
apogee height: 866 km
right ascension of ascending node: 336.0405°
argument of perigee: 130.7671°
revolutions per day: 14.14141824
mean anomaly at epoch: 229.5955°
orbit number at epoch: 79021

The dashed part of the orbit path shows where the satellite is in the earth's shadow,  

DLR